Wind_Speed
63 65 67 72 79 81 80 78 77 77 75 71 68 65 63 62 60 58 57 57 57 57 57 56 56 54 54 54 55 56 56 57 57 56 57 58 59 59 58 56 55 55 56 56 55 53 50 47 46 46 45 44 43 42 41 40 40 40 40 41 42 44 44 43 41 38 35 35 36 37 38 37 35 34 33 31 29 27 24 25 27 28 28 27 26 28
62 63 67 71 77 82 83 81 80 79 76 71 67 64 63 63 60 59 59 58 57 58 58 57 55 54 54 54 56 57 57 57 57 57 58 58 59 58 56 55 53 54 55 53 51 49 48 47 46 45 43 41 40 40 40 40 40 41 41 41 41 41 41 41 40 37 33 32 33 34 36 36 33 32 32 32 31 28 26 27 29 30 30 30 30 30
63 63 67 70 75 80 82 82 81 79 75 70 66 64 64 63 61 61 60 58 58 59 58 57 55 54 54 55 56 57 57 57 57 57 57 57 57 56 55 52 51 52 52 50 48 48 48 47 44 42 40 39 39 40 41 41 42 43 42 41 39 38 38 38 38 38 35 35 36 35 35 35 32 30 30 30 30 30 29 30 31 31 31 32 33 34
65 64 67 70 74 79 80 80 79 77 73 69 66 65 64 63 62 62 60 58 59 59 58 56 55 54 54 55 57 57 57 56 56 57 57 56 55 54 52 50 49 49 48 47 47 46 45 43 40 39 39 40 41 42 43 44 44 45 44 40 38 36 36 36 35 37 37 36 34 34 36 35 32 29 28 27 28 30 31 33 34 33 32 32 33 35
66 66 69 72 75 77 78 78 77 75 71 69 67 65 64 64 64 62 59 59 60 59 58 56 56 55 54 56 57 57 57 56 57 57 56 54 52 52 50 48 47 46 45 44 43 43 43 42 41 41 42 42 43 43 45 46 46 46 45 42 39 37 36 35 34 35 35 33 32 32 35 35 32 29 27 25 25 27 29 32 35 35 33 31 32 33
68 69 71 73 74 75 75 75 75 73 71 68 67 66 65 65 64 61 59 59 60 59 58 57 56 55 55 57 57 57 57 57 57 56 53 52 51 51 49 47 47 46 43 41 41 44 45 45 45 44 44 45 45 46 46 47 47 46 45 44 43 40 38 36 34 34 33 32 32 29 29 32 32 30 27 24 24 23 24 27 33 35 34 32 32 32
69 71 72 73 73 73 73 73 73 71 69 67 66 66 66 65 62 60 59 59 59 59 58 57 56 56 56 57 57 57 57 56 56 54 52 51 51 50 49 47 46 46 43 41 43 46 46 47 47 47 47 47 48 48 48 48 48 48 48 48 46 43 40 39 36 34 32 32 31 29 27 29 31 31 27 25 24 23 22 25 30 34 34 32 33 33
70 71 71 71 71 71 71 71 71 69 66 65 66 66 66 64 61 60 59 58 58 58 57 57 57 57 57 56 57 57 56 55 54 53 52 52 51 50 48 47 46 46 46 45 46 47 48 48 49 49 49 49 49 49 49 49 50 51 52 51 49 46 43 41 39 36 34 33 32 31 29 28 30 30 27 26 26 25 25 26 29 34 35 33 33 34
72 72 71 70 70 69 70 70 70 67 65 66 68 67 65 63 60 59 58 57 57 57 57 56 56 58 57 55 56 58 57 55 54 53 53 52 50 49 47 46 44 45 46 46 46 48 49 49 50 50 50 50 51 51 51 52 53 54 55 55 53 49 46 44 42 39 36 35 34 33 31 29 29 28 27 26 28 28 27 26 28 33 36 35 34 35
74 73 71 70 69 69 71 72 70 67 66 68 69 66 64 61 59 58 57 57 56 56 56 56 56 57 56 55 56 58 58 57 54 52 50 49 48 48 47 46 45 43 44 44 45 46 48 50 50 51 51 52 53 54 54 54 55 56 56 57 56 53 49 46 45 42 38 37 36 34 32 32 31 31 31 29 29 30 29 28 29 32 36 39 36 36
73 71 70 68 68 70 73 73 70 68 69 70 68 65 62 60 58 57 57 56 55 55 55 55 55 55 54 54 56 58 58 56 52 48 46 46 47 47 47 47 45 43 43 44 45 46 48 50 52 52 53 54 56 58 59 59 59 59 59 58 57 55 52 48 46 45 41 39 38 37 36 35 34 34 36 34 33 34 33 32 31 30 35 41 40 37
70 68 67 67 69 71 72 71 68 68 69 69 65 62 59 58 57 56 55 54 54 53 53 53 53 53 53 54 56 58 56 53 48 44 42 43 46 47 47 46 44 44 45 46 47 47 49 51 52 53 54 55 58 60 60 59 58 57 56 55 55 54 53 50 47 46 43 42 41 41 40 38 37 37 38 38 37 37 36 35 34 32 34 41 43 40
66 66 66 68 70 70 70 68 66 66 65 63 59 57 56 56 56 55 54 53 52 52 52 52 52 52 53 54 56 56 53 48 44 42 41 41 43 45 43 43 44 45 47 47 47 48 49 51 52 54 56 58 59 58 56 55 55 54 51 50 50 51 51 50 47 46 45 44 43 43 44 42 40 40 39 39 39 38 37 36 36 36 36 38 42 43
64 64 65 68 69 68 67 65 62 62 60 57 55 55 55 55 54 53 51 50 50 50 51 51 51 52 53 54 54 52 49 44 41 40 40 40 42 43 43 43 45 45 46 46 46 48 49 51 53 55 57 58 59 58 57 57 56 51 47 46 46 47 48 48 46 45 45 44 43 44 46 46 43 41 40 40 39 38 39 39 39 38 38 40 41 44
63 64 65 67 67 66 64 62 61 60 59 57 57 57 57 55 53 51 50 50 50 51 51 50 51 53 53 53 51 48 46 42 41 41 40 41 42 43 43 43 44 44 44 45 46 48 49 51 53 55 57 59 60 61 61 60 54 47 44 43 43 44 46 46 44 42 41 39 40 44 48 48 45 43 41 40 39 38 38 40 41 39 39 43 43 45
63 64 65 66 66 64 63 62 61 60 60 59 59 58 56 54 53 52 52 51 51 51 50 50 52 52 51 48 45 44 42 42 42 41 39 40 41 42 43 43 43 44 45 45 46 48 49 50 52 55 58 61 63 65 63 59 52 46 42 40 40 40 42 43 43 41 37 33 36 44 49 50 46 44 43 40 38 38 38 39 40 39 38 42 46 49
62 64 66 66 65 65 64 63 61 60 61 60 58 57 56 54 54 53 52 51 50 49 49 50 51 49 46 43 41 40 40 42 43 41 39 40 41 42 43 43 43 44 44 44 45 46 48 51 54 58 61 63 64 62 59 55 49 43 38 35 36 37 38 40 41 42 40 37 38 43 48 50 48 44 44 42 39 38 40 40 40 39 39 40 43 49
62 64 66 66 65 65 64 62 60 61 61 60 58 58 57 55 53 52 50 49 48 48 48 48 48 45 41 38 37 38 40 41 42 41 40 41 41 41 42 43 43 43 43 44 46 48 50 53 57 59 60 61 59 56 54 51 46 39 33 31 32 34 36 38 40 43 44 43 42 42 44 49 48 43 41 41 40 40 40 41 41 40 40 40 40 42
63 64 65 66 65 64 63 61 60 61 61 60 59 58 56 53 51 50 48 46 46 47 47 47 45 42 38 36 37 39 40 40 40 40 40 39 39 40 42 43 44 44 44 45 46 48 50 52 54 54 55 56 55 53 51 46 40 34 29 28 30 32 35 36 39 43 44 42 42 42 41 45 46 41 38 37 40 43 42 41 42 41 40 41 40 40
63 64 65 65 64 63 61 60 59 59 59 58 57 54 52 50 48 47 45 44 45 47 46 44 42 39 38 39 39 40 40 40 40 40 40 39 40 42 43 43 43 44 44 44 44 45 47 48 49 50 51 53 52 50 46 40 35 30 26 26 29 31 33 35 39 43 44 42 42 43 41 42 45 41 36 35 39 43 44 43 44 44 43 42 42 42
62 63 63 63 62 61 60 58 58 58 58 56 53 51 49 47 46 45 44 44 44 45 44 41 39 38 40 40 39 38 39 39 39 39 40 40 41 42 42 42 42 42 42 41 42 43 44 45 46 47 48 49 48 46 41 36 32 28 24 24 27 30 32 35 39 42 45 43 41 42 41 41 44 41 35 35 40 44 46 46 45 45 44 44 43 44
59 60 61 61 60 59 58 58 58 57 57 54 52 50 49 47 46 45 45 45 45 44 42 40 39 39 40 39 38 37 38 37 37 39 39 40 40 40 40 41 41 40 39 39 40 41 42 43 44 45 46 45 44 41 37 33 30 27 24 24 27 30 32 36 38 41 44 43 39 38 40 41 43 40 36 38 42 44 46 47 48 47 45 44 44 45
57 58 58 58 57 57 57 57 57 56 55 52 51 50 48 47 46 45 45 44 43 42 41 39 40 40 40 38 37 36 36 35 36 38 38 38 38 39 39 40 40 39 38 38 39 41 41 42 43 44 44 43 40 36 33 31 29 26 24 25 28 31 33 35 37 39 42 43 37 34 38 43 43 40 38 39 41 44 45 45 48 50 49 46 46 45
57 57 57 56 55 55 55 55 55 54 53 51 49 49 47 46 46 45 44 42 41 41 40 39 39 38 37 36 34 34 34 34 35 36 36 37 39 39 39 39 38 38 37 38 39 40 41 42 42 43 43 40 37 32 30 30 29 27 26 27 29 31 33 34 35 37 40 43 39 35 37 42 44 41 38 37 37 42 45 44 44 47 48 48 47 46
56 56 56 56 55 54 54 53 53 52 50 49 48 48 47 46 45 44 42 41 41 41 40 38 36 35 34 34 33 33 33 34 35 36 38 40 40 39 38 38 37 37 38 39 40 41 42 42 42 42 41 38 34 30 29 29 29 27 28 29 30 32 34 35 35 37 39 41 42 40 39 42 44 43 39 36 35 37 42 43 42 42 43 45 45 45
56 56 56 56 55 54 53 53 52 51 50 49 49 49 48 46 45 44 43 42 41 41 39 38 35 35 35 35 34 35 35 36 37 39 41 42 40 39 38 37 38 38 39 40 41 42 42 42 42 42 41 37 32 29 28 29 29 28 29 31 32 33 34 35 36 38 38 39 41 40 38 40 43 42 39 36 34 35 38 42 43 40 41 44 46 45
56 56 55 55 55 55 55 54 54 53 53 52 52 51 49 48 47 46 44 43 42 41 40 38 37 37 38 37 36 37 37 37 40 42 43 42 40 39 39 38 39 40 41 42 42 43 43 42 42 42 40 36 31 28 27 29 29 29 31 33 33 34 35 35 37 39 39 40 41 39 36 37 39 40 39 37 35 34 35 38 41 40 40 43 46 47
55 55 55 55 55 55 55 55 55 55 55 54 53 52 51 50 49 48 46 44 43 41 40 39 38 39 40 39 38 39 39 40 42 44 43 42 40 39 40 40 40 42 43 43 43 44 43 42 42 41 39 36 32 28 27 28 29 30 32 34 35 35 36 36 37 39 41 42 43 43 39 36 37 38 39 39 37 34 33 35 38 40 41 41 43 47
55 55 55 55 55 56 56 56 55 55 55 54 54 53 52 52 51 50 48 47 45 42 41 40 40 41 42 41 41 41 42 43 45 45 44 42 40 41 42 42 42 43 44 44 44 44 43 42 41 41 39 36 32 29 27 27 30 32 34 36 36 36 38 38 37 38 41 43 45 47 44 40 37 36 37 39 38 36 35 36 38 40 43 42 40 42
55 55 56 56 56 56 56 56 56 56 55 55 55 54 53 53 53 51 50 49 47 45 44 43 42 42 43 43 43 43 45 46 47 46 44 42 41 43 45 44 44 44 44 44 44 44 43 41 41 40 39 37 33 31 28 27 30 33 36 38 38 37 38 40 40 39 40 42 44 45 46 45 42 38 36 37 39 39 38 39 39 40 42 42 41 40
57 57 57 57 56 56 56 56 56 56 56 56 56 55 54 54 53 52 51 49 48 46 45 45 44 44 45 46 46 46 47 48 47 46 44 43 44 46 47 46 46 46 46 46 45 44 42 40 40 40 39 37 34 32 30 28 30 33 36 40 41 40 39 40 42 43 42 42 42 41 42 44 45 43 39 38 39 41 40 40 40 41 41 42 42 42
57 57 57 58 58 57 57 57 57 57 57 57 56 55 55 55 54 53 52 51 49 47 46 45 45 45 46 47 47 48 48 48 48 47 46 46 47 49 49 48 48 47 47 47 46 44 42 40 40 39 38 37 34 33 32 30 30 32 36 40 42 42 41 40 42 44 45 44 43 41 39 39 42 44 43 42 42 43 42 40 39 39 40 41 41 42
55 56 56 57 57 57 57 57 57 57 57 57 56 56 56 56 55 54 53 52 51 49 48 47 47 47 48 48 49 50 50 50 50 50 49 49 50 50 50 50 50 49 49 48 47 44 42 40 39 37 37 36 33 33 33 31 31 32 35 39 42 44 43 41 42 44 47 47 45 43 41 39 40 42 43 44 45 45 44 43 41 41 42 43 44 45
55 55 55 55 55 56 56 57 57 57 56 56 56 56 56 56 55 55 55 54 53 51 50 50 49 49 49 50 51 52 52 52 53 53 52 52 52 52 52 52 52 51 50 48 46 44 42 41 40 37 35 34 33 33 34 33 32 33 35 38 41 44 45 44 43 43 46 49 49 46 44 43 42 42 43 45 46 46 45 44 44 43 44 46 49 49
56 56 56 56 56 56 57 57 57 56 56 56 57 57 57 57 56 56 56 56 54 53 53 52 51 50 51 51 51 52 53 54 54 55 54 54 54 54 53 53 53 52 50 48 46 44 42 42 41 37 34 33 33 34 35 36 35 34 35 37 40 43 45 46 45 44 46 49 51 51 48 46 45 45 45 46 46 46 46 46 46 46 47 49 51 52
56 56 56 57 57 58 58 57 57 58 58 59 59 58 58 58 58 58 57 57 57 56 55 54 53 53 53 52 53 54 54 55 56 57 57 56 56 55 54 54 53 52 50 49 47 44 43 44 42 38 34 32 32 33 36 37 37 37 37 38 39 42 43 45 46 47 47 48 51 53 53 50 48 48 48 49 47 46 47 47 46 47 48 50 52 54
56 57 57 57 58 58 58 58 59 60 60 60 60 59 60 60 60 59 58 58 58 57 56 56 56 55 55 55 55 55 55 56 57 58 58 57 57 56 55 54 53 51 50 50 48 46 45 45 43 39 35 33 32 33 35 37 39 39 39 39 40 41 42 44 45 47 47 48 50 53 55 54 52 51 51 51 49 48 49 48 48 48 48 49 51 52
58 58 59 59 59 59 59 60 61 61 59 60 61 61 62 61 60 59 59 58 58 58 59 59 59 58 57 57 57 57 57 57 58 60 60 58 58 57 56 54 53 52 51 50 51 50 48 47 43 39 36 34 33 32 33 36 39 41 41 41 41 41 42 43 45 47 47 47 49 52 54 56 56 54 54 53 52 51 52 52 51 51 51 51 53 53
59 60 60 60 61 61 61 61 62 62 62 62 63 63 62 61 60 60 60 59 59 60 61 61 61 60 60 59 59 60 60 60 60 61 61 59 59 58 57 56 55 54 53 53 54 54 51 47 42 39 37 34 33 32 33 34 37 40 42 42 43 43 42 43 45 48 49 48 48 50 53 55 56 57 56 55 55 56 57 57 56 56 55 54 56 56
60 60 61 61 61 61 62 62 62 63 63 63 63 63 63 62 62 61 61 61 62 63 63 63 63 63 63 63 62 62 62 62 62 62 61 60 60 60 59 59 58 58 57 57 56 54 50 45 42 40 38 35 33 33 33 34 36 38 40 42 43 44 44 44 45 48 50 50 50 51 52 54 56 57 58 57 57 58 59 60 60 61 60 60 60 59
60 61 61 61 62 62 62 62 62 63 63 63 64 64 65 65 64 63 63 64 65 66 66 66 67 66 66 65 65 64 64 63 63 63 62 61 62 62 61 61 61 60 59 58 55 51 47 43 41 40 39 36 35 34 33 34 36 37 38 40 42 43 45 45 46 47 49 51 52 52 53 54 55 56 58 59 59 60 60 61 61 63 65 66 66 66
60 61 61 62 62 63 63 63 63 64 64 65 66 66 67 67 66 66 67 68 68 68 69 69 69 69 69 68 67 66 65 65 64 64 64 63 62 62 62 62 61 60 58 55 50 46 45 43 41 40 39 37 36 36 34 34 35 36 37 39 41 42 44 46 47 47 48 51 53 54 54 55 56 57 58 60 61 62 62 63 63 64 65 66 67 68
63 63 63 63 64 64 65 65 66 67 68 69 69 69 69 68 69 70 70 70 70 71 71 72 71 70 69 68 67 66 66 65 65 64 64 63 63 62 62 61 59 57 54 51 47 45 44 43 42 41 41 40 38 37 36 35 34 35 37 39 41 42 43 45 47 48 49 51 53 55 56 57 57 58 59 60 62 64 65 66 66 65 66 66 67 67
66 66 66 67 67 68 68 69 70 71 72 71 71 71 71 71 71 72 72 71 71 71 71 71 70 68 66 64 63 63 63 63 63 63 63 62 61 60 59 56 54 52 51 49 47 45 45 43 42 42 43 42 42 40 39 38 37 36 37 39 41 42 43 44 46 48 50 51 53 55 57 59 59 59 60 61 62 64 65 67 68 68 67 67 67 68
66 66 67 68 69 69 70 70 71 72 72 71 70 70 70 70 70 70 69 68 67 67 66 66 65 63 61 59 58 58 58 58 59 59 59 58 56 55 53 51 49 48 48 48 47 46 45 44 44 44 44 45 45 44 43 42 42 41 40 40 41 43 44 46 47 48 50 51 52 54 56 59 60 61 62 62 63 63 65 67 69 70 69 68 68 69
62 63 63 64 64 65 66 66 67 66 66 65 65 64 64 64 64 64 63 62 61 61 61 60 59 58 57 55 54 53 53 54 54 55 54 54 53 51 50 49 47 46 46 47 47 47 46 46 45 45 46 46 48 48 47 46 46 46 45 44 44 44 46 48 50 50 51 52 53 54 55 57 60 61 62 63 64 64 65 66 68 70 71 71 71 70
57 58 58 59 60 60 61 61 62 61 61 60 60 60 60 60 60 60 59 59 58 58 58 57 57 56 54 53 52 52 52 52 53 53 52 52 51 50 49 49 48 46 45 47 48 47 47 47 47 48 48 49 50 51 50 49 48 49 49 49 48 47 48 49 51 53 54 53 54 55 56 58 59 61 63 64 65 66 67 67 68 69 71 73 74 75
55 55 56 57 57 57 58 59 59 59 58 58 58 58 58 58 58 58 58 58 58 58 58 57 57 56 55 54 53 53 53 53 52 52 52 51 51 50 49 49 48 47 46 47 48 47 48 49 49 50 50 50 51 52 52 52 51 51 52 52 52 51 50 50 51 54 56 56 56 56 57 58 60 61 63 64 65 66 68 69 69 70 71 72 74 76
54 54 55 55 55 56 57 58 57 57 58 58 58 59 58 58 59 59 59 58 58 58 58 58 58 57 56 55 54 53 52 52 52 52 51 51 51 51 50 50 50 49 49 48 48 48 49 51 51 50 51 52 53 53 54 54 54 53 53 54 54 54 53 53 53 54 56 58 59 60 60 60 60 61 63 65 66 67 68 69 71 72 72 73 74 76
52 53 53 53 53 53 54 55 55 55 56 57 57 57 57 58 58 59 58 58 58 58 58 57 57 57 57 56 55 53 52 51 51 51 51 51 51 51 52 52 52 51 51 50 49 48 50 51 52 52 53 53 54 55 55 56 56 56 56 56 56 57 56 56 56 56 57 58 60 62 62 63 63 63 64 65 66 67 69 70 71 73 74 74 75 76
52 52 52 52 52 52 53 54 54 54 55 55 55 55 56 56 57 57 57 57 57 56 56 56 56 57 56 55 54 52 51 50 50 51 51 51 52 52 52 52 52 52 51 51 50 50 51 52 53 54 55 56 57 58 58 58 58 58 58 58 58 58 58 58 59 59 59 60 61 63 64 65 65 66 66 67 67 68 70 71 72 73 74 75 76 77
Wind_Direction
236 234 233 231 230 230 230 231 232 234 235 237 238 240 241 243 245 246 247 248 250 252 253 254 256 258 261 263 266 269 272 275 278 280 282 284 284 283 281 278 276 273 271 272 273 275 275 273 271 270 270 270 270 271 271 271 272 272 271 273 275 273 271 269 267 266 267 270 272 271 267 262 259 258 254 246 241 237 228 226 232 233 234 234 236 242
235 233 231 230 229 228 229 229 231 233 235 236 238 240 241 242 244 245 246 247 249 251 252 254 256 258 261 264 267 270 273 276 279 281 284 285 283 281 279 277 275 273 272 273 273 273 272 271 269 268 267 268 271 273 274 274 275 275 275 277 277 275 272 269 266 262 257 256 256 258 261 260 256 254 252 245 240 239 229 224 229 230 231 231 232 236
234 232 230 229 228 228 228 229 231 233 234 236 237 238 239 241 242 244 245 247 249 251 252 254 256 258 261 264 268 271 275 278 280 282 284 284 281 279 278 278 276 275 274 274 272 271 272 271 270 269 269 270 273 275 276 277 278 278 279 279 278 276 273 269 265 261 252 245 244 245 251 254 251 247 247 243 240 238 230 223 226 227 228 232 234 236
232 230 229 228 227 227 227 228 230 232 233 235 236 237 239 240 241 242 244 246 249 251 252 254 256 259 262 265 269 272 275 278 280 282 283 281 278 277 278 279 278 277 275 273 272 273 273 273 272 271 272 272 273 275 276 278 278 280 281 280 279 278 273 268 264 260 253 247 245 246 247 248 245 240 240 241 239 237 232 227 227 229 228 229 233 236
230 228 227 226 225 225 225 227 228 230 231 233 234 236 237 238 239 241 244 246 248 250 252 254 256 259 263 267 270 273 275 277 279 282 281 278 275 275 276 278 278 277 274 272 272 273 272 273 274 273 274 274 275 276 277 278 279 280 281 280 280 278 271 265 261 257 254 248 243 245 250 249 243 236 235 235 235 235 236 232 231 235 234 228 228 233
228 227 225 224 223 223 224 225 227 228 230 231 233 234 236 237 239 241 243 245 248 250 252 254 257 260 264 267 270 273 275 277 280 280 278 275 273 273 274 275 275 274 272 271 269 270 271 273 274 275 276 277 277 277 277 278 279 280 281 280 281 279 272 264 258 254 252 246 239 240 249 251 243 236 234 230 228 232 238 235 232 236 238 233 230 232
225 225 224 223 221 221 222 224 226 227 229 230 232 234 235 237 239 240 242 244 247 250 253 255 258 261 264 267 271 273 275 277 279 278 275 273 271 271 271 273 273 270 269 269 268 269 272 273 275 276 277 277 277 277 278 279 279 280 280 280 280 279 273 264 257 252 248 243 237 235 242 248 243 237 234 230 226 228 235 234 228 228 233 236 234 233
223 223 223 222 221 220 221 222 224 225 227 228 231 233 234 236 238 239 241 244 247 251 254 257 260 262 265 268 271 272 274 276 277 276 274 272 269 268 269 272 272 268 266 266 268 270 272 273 275 276 276 277 277 278 278 279 279 279 280 280 279 279 274 264 257 251 246 239 232 230 234 240 242 240 238 237 231 228 231 231 224 220 226 234 233 230
220 220 219 219 218 218 219 220 221 222 224 226 228 230 233 235 237 239 241 244 248 251 255 258 261 263 266 269 270 271 274 276 277 277 274 270 267 266 267 270 271 269 267 267 268 270 272 274 275 276 277 278 278 278 279 279 279 279 280 280 280 278 272 263 256 249 243 236 228 225 227 232 236 237 238 240 236 231 230 229 225 219 220 226 228 227
217 217 216 216 215 215 217 219 219 220 222 224 227 230 232 234 237 239 242 244 247 251 255 258 261 265 268 269 270 273 276 279 279 276 272 266 262 262 265 267 268 270 269 269 270 271 273 275 276 278 279 279 280 280 280 279 279 279 279 279 279 276 269 260 253 246 239 233 227 222 223 225 225 227 230 233 235 233 228 225 226 225 220 220 222 223
216 215 215 213 213 214 217 218 218 218 221 224 227 229 232 234 237 239 242 244 248 251 255 259 263 266 268 270 272 275 279 281 279 274 268 261 257 260 264 264 266 270 272 271 272 273 275 277 279 280 281 282 282 281 281 280 278 278 278 277 275 271 265 256 249 244 237 231 226 220 220 222 221 223 227 228 231 233 229 225 228 231 224 219 219 222
216 214 213 212 212 214 217 218 218 219 223 226 228 231 233 236 238 240 242 245 248 252 256 259 263 266 268 270 274 278 281 280 276 270 265 258 256 261 264 263 266 269 271 272 273 275 277 279 281 282 283 283 283 283 282 281 279 278 276 274 270 266 261 254 246 241 236 230 224 218 217 221 222 223 226 226 227 231 232 230 230 233 227 219 218 222
213 212 210 210 212 214 217 218 218 221 225 228 231 234 236 238 239 241 243 246 250 253 255 258 261 264 267 272 276 280 279 276 271 267 263 259 259 262 264 265 267 270 272 274 276 277 279 281 283 283 284 283 283 282 281 282 283 280 275 271 266 261 257 251 243 239 234 228 223 217 214 219 221 222 224 224 224 228 233 233 231 231 229 222 219 222
209 209 209 210 212 214 216 217 219 222 225 227 229 232 234 236 238 240 243 246 248 250 253 256 260 264 269 274 277 277 274 270 268 265 263 262 262 264 266 268 270 271 274 275 277 278 280 282 282 282 283 282 283 282 282 286 287 281 275 269 263 257 252 247 241 236 234 228 223 217 215 218 221 220 222 221 221 225 231 234 232 230 227 223 223 225
205 207 209 210 212 214 215 216 217 220 222 223 224 226 229 231 234 237 239 242 244 248 252 256 261 266 271 275 276 273 269 266 264 263 263 264 265 267 268 270 271 272 273 274 276 278 280 280 280 281 282 283 285 285 287 289 287 281 276 270 263 255 248 243 236 232 233 232 228 221 215 218 221 220 220 221 220 223 229 233 232 230 226 221 221 226
204 205 208 210 211 212 214 215 216 218 220 221 223 225 228 230 233 235 238 241 246 250 254 259 264 269 273 274 273 270 267 264 263 263 263 263 265 268 269 270 270 270 271 273 275 276 277 279 281 283 284 285 286 287 288 288 286 283 278 269 262 253 244 239 231 225 224 229 233 226 217 217 221 220 220 222 223 223 227 231 229 228 228 223 220 223
203 205 208 209 209 211 212 213 215 217 219 221 223 225 228 230 233 236 239 243 248 253 257 262 266 270 271 271 269 266 263 261 262 263 263 262 264 266 268 268 267 268 270 272 272 274 276 279 282 285 286 286 286 287 288 288 287 284 277 266 258 249 240 234 227 219 214 216 227 227 218 215 220 222 222 224 226 225 226 229 227 226 228 227 224 224
203 206 208 208 209 210 211 212 214 217 219 221 222 224 227 229 233 237 241 245 251 256 260 264 266 267 266 265 263 261 259 259 260 261 262 262 263 264 264 265 267 269 270 270 271 274 277 280 282 284 285 286 287 288 289 290 288 283 273 261 251 243 236 230 222 216 212 214 221 224 218 214 217 222 224 225 228 227 226 227 226 227 229 230 230 230
203 206 208 209 209 210 210 211 214 217 220 222 224 226 229 231 235 239 244 248 253 257 260 262 263 263 261 258 256 256 257 257 258 259 260 261 262 263 263 265 267 268 269 270 273 277 279 281 283 284 285 286 288 289 291 290 287 280 268 252 242 237 231 224 218 213 212 215 220 223 221 216 215 220 225 228 231 230 227 226 225 226 229 231 234 236
203 206 207 209 210 210 211 212 214 217 221 224 227 230 233 235 239 243 247 250 253 256 258 260 261 260 257 254 255 256 258 258 258 259 260 260 261 261 262 264 266 267 270 273 277 280 282 283 284 285 286 288 289 291 292 289 284 276 261 244 235 230 225 219 214 211 209 212 217 221 224 220 215 216 221 228 233 231 227 225 226 228 229 231 234 238
204 206 208 209 210 211 212 213 215 218 221 224 228 231 233 236 239 242 245 248 251 255 256 257 258 257 256 257 259 259 259 258 258 259 259 259 259 260 261 263 265 269 273 277 280 281 282 284 286 289 290 290 292 293 292 287 280 270 255 239 230 224 219 214 212 209 208 211 216 220 223 222 216 213 216 225 232 232 228 226 226 229 231 231 232 236
206 207 209 210 211 211 212 214 215 218 221 224 226 230 232 235 238 242 246 249 251 253 255 255 256 255 256 258 258 258 257 258 258 258 257 257 257 258 259 262 266 272 275 278 279 280 283 287 291 293 293 294 294 293 290 284 276 265 250 235 226 218 214 211 210 209 209 211 215 219 221 219 214 212 215 222 229 232 230 229 229 230 232 233 233 236
207 208 210 211 212 213 214 215 217 218 221 223 227 230 233 237 241 246 249 251 251 253 254 255 255 255 256 257 257 257 257 257 256 255 255 255 255 256 260 264 270 273 274 276 279 283 287 291 295 296 296 296 294 290 286 281 273 262 246 231 222 215 211 209 208 209 210 210 212 217 219 218 215 214 216 219 225 230 230 230 232 232 232 233 235 237
207 208 209 210 212 214 215 217 218 220 222 225 229 233 236 240 243 246 248 249 250 252 255 255 255 255 257 257 257 256 255 254 253 253 253 254 255 258 263 268 271 273 275 278 283 288 292 294 296 298 297 297 293 285 279 276 269 258 243 228 219 213 210 208 208 211 211 209 211 215 216 217 218 218 218 219 224 229 229 230 234 235 233 233 235 239
208 208 208 210 212 214 215 218 220 222 224 227 230 233 236 240 242 244 245 246 248 252 254 254 254 253 253 253 252 251 250 250 251 252 253 254 258 262 266 270 272 274 277 281 286 291 294 295 297 298 297 296 290 280 274 271 264 254 240 226 217 213 210 208 210 213 212 211 214 217 216 216 218 218 219 221 224 229 232 232 235 238 238 237 239 242
208 208 208 209 212 213 214 217 219 221 223 226 229 232 235 238 240 242 243 244 247 250 251 250 248 248 248 247 246 246 247 248 251 253 255 257 261 265 268 270 272 275 279 282 287 291 293 295 297 297 296 294 286 274 269 267 260 250 237 225 218 215 213 212 214 215 212 212 215 218 220 221 221 220 220 221 223 229 233 235 238 241 243 243 242 244
209 209 209 209 211 213 214 215 217 219 221 223 226 230 233 236 238 240 241 242 245 247 247 246 245 246 246 245 245 247 249 251 253 255 257 261 265 268 270 271 273 275 279 282 286 291 293 295 297 297 295 293 283 268 263 262 256 246 235 226 222 219 216 215 218 218 214 212 213 215 220 222 222 222 221 218 221 228 234 237 239 240 242 244 243 243
210 210 210 210 212 214 215 216 217 219 221 223 226 229 232 234 236 238 239 240 242 244 244 245 245 245 246 246 246 248 250 252 254 256 260 264 267 270 271 271 273 274 278 282 286 290 292 294 297 296 294 292 282 265 258 257 252 242 233 228 226 224 220 217 221 222 218 215 215 216 218 219 218 219 219 218 219 225 231 235 237 238 240 242 244 244
211 211 210 211 212 214 217 218 219 221 224 226 228 230 232 234 236 238 239 239 241 241 241 242 243 244 246 246 247 249 251 254 256 259 262 265 268 270 271 272 273 274 278 282 286 289 290 292 296 295 292 290 280 264 255 253 248 240 233 229 228 228 224 220 221 224 223 221 221 220 220 219 217 216 218 220 221 224 230 234 236 238 240 242 246 248
211 211 211 212 213 215 217 219 220 222 224 227 229 230 233 236 238 239 240 241 242 244 243 242 242 243 246 248 248 250 253 255 258 261 264 267 269 270 271 272 273 276 279 282 286 288 288 291 295 294 290 288 279 262 253 251 247 240 234 230 230 230 229 224 223 224 225 225 226 227 226 225 222 220 220 221 223 225 230 235 238 240 241 243 245 248
211 211 211 212 214 215 217 220 221 223 225 227 229 230 232 235 238 240 241 241 244 246 246 244 243 244 246 248 250 251 254 256 260 263 266 268 269 269 270 272 274 276 279 282 285 286 286 290 294 292 288 287 277 261 252 249 246 241 236 232 231 231 232 230 227 226 226 227 228 229 231 232 229 228 225 223 223 225 229 235 240 243 245 246 247 249
213 213 213 214 215 216 218 221 223 224 226 228 229 231 233 235 238 240 241 242 243 245 246 246 246 247 248 251 253 255 257 259 262 264 266 267 268 269 271 273 275 277 280 282 284 284 285 289 293 289 286 286 276 259 251 250 247 243 238 234 233 233 234 234 233 231 229 228 227 227 230 233 234 233 232 229 227 227 229 235 240 243 246 248 249 250
216 217 217 218 218 219 221 223 225 227 229 230 231 233 235 236 239 241 242 242 244 245 245 245 246 247 248 251 254 256 258 260 262 263 265 266 268 270 271 273 275 278 280 281 282 282 283 288 291 286 283 284 275 258 250 249 248 246 242 237 235 234 235 236 237 237 234 230 228 228 229 231 233 234 234 233 231 230 232 236 240 243 245 247 249 250
217 219 220 221 222 223 224 226 227 229 231 233 234 235 237 238 240 241 242 243 245 246 247 247 248 249 250 251 253 255 258 260 262 264 265 267 268 270 272 274 276 278 279 280 280 279 281 287 289 283 280 281 273 258 250 248 248 247 245 241 237 235 237 238 239 240 239 236 232 230 231 232 233 233 233 233 233 233 234 237 241 244 246 248 250 251
219 220 221 223 224 225 226 228 229 230 232 235 236 237 238 239 240 241 242 244 246 247 248 250 251 252 253 255 256 257 259 261 262 264 266 267 269 270 272 274 276 277 278 277 277 277 280 287 287 280 276 276 270 259 251 247 247 246 244 243 240 237 237 238 239 240 241 241 237 234 233 235 236 235 234 234 234 234 236 240 243 246 247 250 251 252
221 223 224 225 226 228 229 230 231 232 233 234 236 237 238 240 241 241 242 244 246 247 249 250 252 253 254 256 257 258 260 262 263 265 266 267 269 270 272 273 274 275 275 275 275 275 279 285 285 278 274 273 267 259 252 248 247 246 244 242 242 240 238 239 240 240 240 242 242 239 237 236 237 237 236 236 236 235 237 241 245 248 249 251 252 253
223 225 226 228 229 231 232 233 234 234 235 237 238 239 240 241 242 243 244 246 248 249 250 251 253 253 254 256 257 258 260 262 264 265 266 267 268 269 270 271 272 273 273 273 274 274 278 283 280 273 272 272 266 260 254 249 247 246 245 242 240 240 240 238 239 240 239 240 242 242 241 239 239 238 238 239 239 238 239 242 244 245 246 248 250 252
225 227 228 229 231 232 234 235 237 237 238 239 240 241 241 243 244 245 247 248 249 251 252 252 253 254 255 256 257 259 260 262 263 264 265 267 267 268 269 270 270 270 269 270 272 274 278 280 273 266 268 270 267 261 256 251 249 247 246 245 242 240 239 238 238 239 239 238 239 241 242 242 241 240 240 240 241 240 241 243 244 245 245 245 247 249
227 229 230 231 233 234 236 237 238 239 240 240 241 242 243 244 245 246 248 249 249 250 252 252 253 254 255 257 259 261 262 264 264 265 266 267 268 268 269 269 269 269 269 270 271 274 277 274 265 260 263 265 265 263 258 254 252 249 248 248 246 243 241 239 238 238 238 237 236 237 240 242 243 242 241 241 242 242 242 243 244 246 247 247 249 251
230 231 232 234 235 236 238 239 241 242 242 243 243 244 245 245 245 246 248 249 249 250 251 253 254 255 257 258 260 263 264 265 266 266 266 267 267 267 268 268 269 269 270 271 272 273 272 265 257 258 261 263 264 263 259 256 254 251 250 249 249 247 245 242 240 238 237 238 237 235 236 238 240 242 242 241 241 243 244 244 245 246 246 247 249 252
232 233 234 235 237 238 239 241 242 244 245 246 246 246 247 247 247 248 248 249 250 251 252 254 255 257 259 260 262 263 264 265 264 264 264 264 265 266 267 267 268 269 269 270 270 269 263 256 252 255 260 263 265 265 261 258 255 253 251 251 251 250 248 247 245 242 239 238 238 237 235 235 236 238 240 241 241 241 243 244 245 246 246 247 249 251
234 235 236 237 238 239 240 241 243 244 245 246 247 248 249 249 250 250 250 251 252 253 255 256 257 258 260 261 262 263 263 262 262 262 263 263 263 264 265 266 267 267 267 267 264 259 254 251 252 255 258 262 265 266 264 261 257 254 252 251 250 250 249 248 247 246 243 240 239 239 238 236 235 235 237 239 240 240 240 242 244 246 247 248 250 252
235 237 238 239 240 241 242 242 243 244 245 246 247 249 250 251 252 253 253 254 255 256 257 258 259 260 260 260 261 261 261 260 261 261 261 262 262 263 263 264 264 264 263 260 255 250 248 250 253 256 259 262 265 267 266 264 260 257 253 250 249 249 249 248 247 247 246 243 241 240 239 238 237 236 236 236 237 238 239 240 241 243 245 247 249 250
238 238 240 241 241 242 243 244 244 246 247 248 249 250 252 253 254 255 256 256 257 258 258 259 259 260 259 259 258 258 258 259 259 260 260 261 261 261 261 260 260 259 257 254 249 244 245 248 252 255 259 262 264 267 267 266 263 261 258 254 250 248 248 248 247 246 246 245 243 242 241 240 239 239 238 237 236 237 238 239 239 240 242 244 246 247
240 240 241 242 242 243 244 245 246 247 248 249 250 251 251 252 253 254 254 255 255 255 256 256 257 258 258 257 257 256 256 257 257 258 258 258 258 257 257 256 254 252 251 249 246 244 245 247 250 253 256 260 262 265 267 266 265 263 262 259 255 251 248 247 246 245 245 244 244 244 243 242 241 240 240 239 239 238 238 238 239 239 239 241 243 245
240 240 241 241 242 243 243 244 245 246 247 248 248 248 249 249 250 250 251 251 251 252 253 253 254 254 255 255 255 255 255 255 255 255 255 255 255 254 253 252 250 248 247 246 246 245 246 248 249 252 254 257 260 262 265 265 265 264 264 263 260 256 251 248 247 247 246 245 245 244 244 244 243 242 241 241 241 240 239 239 239 240 240 240 240 242
241 240 240 241 241 241 242 243 243 244 245 245 246 246 247 247 248 248 249 249 249 250 251 252 252 252 252 253 253 254 254 254 253 253 253 253 253 252 251 250 249 246 245 246 248 247 247 248 250 251 253 255 257 260 263 265 265 265 266 266 265 262 257 253 250 248 248 247 247 246 246 245 245 243 243 242 242 242 242 241 241 241 241 241 241 241
243 242 241 241 241 241 242 242 242 243 243 244 244 245 246 246 247 248 249 249 249 250 250 251 252 252 252 252 253 253 253 253 253 252 252 251 251 251 251 250 249 247 244 245 248 250 250 249 249 251 253 255 257 260 263 265 266 266 267 268 268 267 264 260 255 252 249 248 248 248 248 248 247 246 245 244 244 244 244 244 243 243 243 243 243 243
244 243 242 242 242 242 242 243 243 243 243 244 244 245 245 246 247 248 249 250 251 251 252 252 253 254 253 253 252 251 251 252 252 251 251 251 251 251 251 250 250 249 246 245 246 249 251 252 252 253 255 257 259 261 264 266 267 268 268 269 270 270 268 265 262 258 254 251 250 249 249 249 249 249 249 248 246 245 245 246 245 245 245 245 245 245
245 245 244 243 243 243 243 244 244 244 245 245 245 246 246 247 248 248 249 250 251 252 253 254 254 254 254 253 252 252 251 250 250 250 250 250 250 250 250 250 250 250 250 249 249 249 251 254 255 256 258 259 261 263 265 267 268 268 269 269 269 270 270 268 266 263 259 255 253 252 251 250 249 249 250 250 250 248 248 247 247 247 247 247 247 247
246 246 245 245 245 244 244 244 244 245 245 246 246 247 247 247 248 248 249 250 250 251 251 252 252 252 253 253 253 252 251 250 249 248 248 249 249 250 250 250 251 252 252 253 254 254 255 256 258 260 261 263 264 266 267 267 268 268 268 268 268 269 269 269 268 266 262 259 256 254 253 252 251 250 250 250 251 251 250 249 249 249 249 248 249 249
Height
10600 10606 10611 10614 10618 10623 10628 10633 10634 10633 10638 10646 10651 10656 10661 10663 10667 10673 10675 10678 10681 10682 10683 10684 10686 10690 10692 10693 10694 10695 10696 10697 10697 10697 10696 10693 10691 10689 10689 10688 10688 10686 10685 10686 10688 10691 10693 10694 10694 10695 10696 10696 10697 10697 10697 10698 10698 10699 10699 10700 10700 10700 10701 10703 10704 10709 10715 10718 10718 10716 10714 10715 10716 10716 10718 10720 10723 10726 10731 10734 10735 10735 10735 10737 10738 10738
10594 10600 10603 10605 10609 10613 10617 10622 10624 10627 10635 10642 10647 10653 10656 10658 10663 10667 10669 10673 10675 10674 10676 10678 10682 10686 10687 10688 10689 10690 10691 10692 10692 10691 10690 10688 10685 10683 10682 10682 10682 10680 10680 10682 10685 10686 10687 10688 10689 10690 10692 10692 10692 10692 10692 10692 10693 10693 10694 10695 10696 10696 10696 10698 10699 10703 10709 10712 10710 10708 10708 10709 10710 10711 10713 10715 10719 10722 10726 10727 10727 10728 10731 10732 10734 10734
10587 10592 10594 10597 10601 10604 10609 10615 10619 10625 10632 10638 10643 10647 10649 10653 10658 10660 10663 10668 10668 10667 10670 10673 10677 10681 10682 10683 10684 10686 10687 10688 10687 10685 10684 10682 10679 10678 10677 10677 10677 10675 10676 10679 10681 10681 10681 10682 10683 10685 10687 10688 10688 10688 10687 10687 10688 10688 10689 10691 10692 10692 10692 10693 10695 10697 10699 10700 10699 10699 10701 10703 10705 10707 10708 10711 10714 10718 10720 10721 10721 10723 10726 10727 10729 10730
10579 10583 10586 10589 10592 10596 10603 10609 10614 10621 10628 10633 10638 10640 10643 10648 10651 10654 10659 10662 10660 10661 10665 10668 10672 10675 10677 10678 10680 10682 10683 10683 10681 10679 10678 10676 10674 10673 10672 10673 10672 10672 10673 10675 10675 10675 10674 10675 10677 10679 10681 10683 10683 10683 10682 10682 10683 10683 10684 10685 10687 10688 10688 10689 10690 10691 10691 10693 10695 10696 10697 10699 10700 10702 10704 10707 10710 10713 10716 10717 10717 10719 10721 10723 10724 10726
10570 10574 10576 10579 10583 10589 10597 10604 10610 10617 10623 10628 10631 10634 10637 10641 10644 10649 10655 10655 10654 10656 10659 10663 10667 10671 10673 10674 10676 10677 10677 10677 10675 10674 10672 10670 10670 10669 10669 10669 10668 10668 10668 10669 10670 10669 10668 10670 10672 10674 10676 10677 10678 10678 10677 10676 10677 10678 10679 10680 10681 10683 10684 10684 10685 10685 10687 10690 10692 10694 10696 10697 10697 10698 10700 10703 10706 10709 10711 10712 10714 10715 10717 10719 10720 10721
10562 10565 10567 10571 10576 10585 10593 10599 10605 10611 10617 10622 10625 10628 10630 10634 10639 10645 10650 10649 10648 10650 10654 10658 10662 10667 10669 10669 10670 10671 10670 10670 10669 10668 10667 10666 10666 10665 10665 10664 10663 10663 10663 10665 10664 10663 10663 10665 10667 10669 10671 10672 10672 10672 10671 10671 10671 10672 10673 10674 10676 10677 10679 10679 10680 10681 10682 10685 10688 10690 10692 10694 10694 10695 10696 10697 10700 10702 10704 10706 10709 10711 10713 10715 10716 10717
10554 10556 10560 10566 10573 10582 10589 10595 10600 10606 10612 10617 10619 10621 10624 10629 10635 10640 10643 10644 10644 10645 10649 10654 10657 10661 10664 10664 10665 10664 10663 10663 10663 10663 10662 10662 10661 10660 10660 10659 10658 10658 10659 10660 10659 10658 10660 10661 10661 10664 10665 10666 10666 10666 10666 10666 10666 10667 10668 10669 10670 10672 10673 10674 10675 10677 10678 10680 10683 10686 10687 10690 10691 10692 10693 10693 10693 10695 10697 10699 10701 10705 10709 10711 10712 10713
10546 10550 10556 10563 10570 10579 10586 10591 10597 10603 10608 10612 10612 10613 10618 10623 10630 10634 10638 10640 10640 10641 10645 10649 10652 10654 10658 10660 10658 10657 10657 10658 10658 10658 10657 10656 10656 10655 10655 10654 10654 10654 10654 10656 10656 10655 10655 10656 10657 10658 10660 10660 10661 10660 10661 10661 10661 10661 10662 10662 10664 10667 10668 10668 10670 10672 10673 10675 10678 10680 10682 10685 10688 10689 10690 10690 10689 10689 10690 10692 10694 10699 10704 10706 10708 10709
10538 10544 10551 10558 10566 10575 10581 10585 10590 10596 10601 10602 10602 10606 10613 10619 10624 10629 10633 10636 10637 10638 10641 10643 10646 10647 10651 10653 10650 10649 10652 10654 10655 10654 10652 10651 10651 10650 10650 10650 10650 10649 10650 10651 10652 10651 10651 10651 10652 10653 10654 10655 10654 10654 10654 10654 10655 10655 10655 10655 10657 10660 10662 10662 10663 10665 10667 10670 10673 10675 10677 10681 10683 10685 10686 10685 10684 10684 10685 10686 10689 10693 10698 10701 10704 10705
10529 10537 10544 10553 10561 10569 10573 10576 10583 10590 10593 10592 10595 10602 10609 10615 10620 10625 10629 10631 10633 10635 10637 10638 10640 10641 10644 10645 10642 10642 10646 10649 10650 10650 10648 10646 10646 10645 10645 10645 10645 10645 10645 10646 10646 10646 10646 10646 10646 10647 10648 10648 10646 10646 10647 10647 10647 10648 10649 10649 10650 10651 10653 10655 10656 10658 10661 10665 10668 10670 10673 10676 10678 10680 10680 10680 10679 10679 10681 10682 10684 10688 10693 10696 10700 10701
10525 10534 10542 10551 10558 10562 10564 10569 10578 10582 10582 10584 10591 10600 10606 10611 10616 10620 10624 10627 10629 10632 10633 10634 10635 10636 10636 10636 10635 10637 10641 10642 10643 10644 10643 10642 10641 10641 10641 10641 10641 10641 10641 10641 10641 10641 10641 10640 10640 10640 10641 10641 10639 10638 10639 10639 10640 10640 10642 10643 10642 10642 10643 10646 10649 10652 10656 10659 10662 10665 10668 10671 10673 10675 10675 10675 10675 10675 10677 10678 10680 10684 10688 10691 10694 10696
10527 10534 10542 10548 10552 10555 10559 10567 10575 10576 10577 10584 10592 10599 10605 10609 10612 10616 10620 10623 10626 10628 10629 10630 10631 10630 10629 10629 10630 10632 10635 10635 10636 10636 10637 10637 10637 10636 10636 10637 10638 10637 10636 10636 10636 10636 10636 10634 10633 10633 10633 10633 10632 10631 10630 10630 10631 10632 10634 10634 10634 10633 10634 10638 10643 10646 10650 10653 10656 10659 10662 10665 10668 10669 10670 10670 10671 10672 10673 10675 10678 10681 10684 10687 10691 10694
10526 10532 10538 10543 10546 10551 10557 10566 10572 10575 10579 10588 10595 10599 10603 10605 10609 10612 10616 10619 10622 10623 10624 10625 10626 10625 10624 10625 10627 10628 10629 10629 10629 10629 10631 10632 10632 10632 10633 10633 10633 10632 10631 10631 10631 10630 10630 10629 10627 10626 10625 10625 10624 10624 10623 10622 10623 10624 10625 10625 10624 10624 10626 10629 10635 10639 10642 10646 10650 10653 10656 10659 10662 10664 10665 10666 10667 10668 10669 10672 10675 10678 10680 10684 10687 10691
10522 10527 10533 10538 10543 10550 10557 10564 10570 10574 10579 10587 10592 10595 10597 10599 10604 10607 10611 10615 10616 10617 10619 10620 10620 10620 10620 10622 10624 10623 10623 10623 10623 10624 10625 10626 10627 10627 10628 10628 10628 10627 10626 10625 10625 10625 10624 10623 10621 10619 10618 10616 10616 10615 10615 10615 10614 10615 10616 10616 10616 10616 10618 10621 10627 10633 10637 10641 10645 10648 10650 10652 10656 10659 10661 10662 10664 10665 10667 10669 10672 10675 10677 10680 10684 10686
10517 10523 10529 10535 10541 10548 10555 10561 10565 10568 10573 10578 10582 10584 10587 10592 10598 10601 10605 10607 10608 10611 10614 10615 10616 10617 10618 10619 10619 10618 10617 10618 10618 10619 10621 10622 10622 10622 10623 10623 10622 10622 10621 10621 10620 10620 10619 10618 10615 10613 10611 10609 10608 10607 10607 10606 10606 10607 10608 10608 10608 10609 10611 10614 10621 10629 10634 10640 10643 10644 10645 10648 10651 10655 10657 10660 10662 10663 10665 10667 10669 10671 10674 10677 10680 10682
10512 10519 10524 10530 10537 10545 10550 10554 10558 10561 10565 10569 10574 10578 10584 10589 10592 10595 10598 10601 10603 10607 10609 10611 10612 10614 10615 10615 10614 10613 10613 10613 10613 10616 10618 10619 10618 10617 10617 10617 10617 10617 10617 10617 10616 10615 10614 10613 10610 10607 10604 10602 10601 10600 10599 10598 10599 10600 10600 10601 10600 10602 10605 10608 10614 10622 10629 10635 10638 10637 10639 10643 10647 10651 10655 10658 10661 10661 10662 10664 10665 10667 10670 10672 10676 10677
10510 10515 10519 10525 10532 10538 10543 10548 10553 10556 10559 10564 10571 10576 10580 10584 10587 10590 10594 10597 10600 10603 10605 10607 10608 10610 10611 10610 10609 10608 10608 10608 10609 10612 10615 10615 10614 10614 10613 10613 10613 10613 10613 10613 10612 10611 10610 10608 10605 10601 10599 10597 10596 10594 10593 10592 10593 10594 10594 10594 10595 10596 10600 10603 10609 10615 10619 10623 10625 10627 10632 10638 10642 10648 10652 10656 10660 10660 10660 10661 10662 10663 10665 10667 10670 10672
10506 10510 10514 10521 10527 10531 10537 10544 10548 10551 10553 10559 10565 10569 10573 10579 10583 10586 10591 10594 10596 10598 10600 10602 10603 10606 10606 10605 10604 10603 10604 10605 10606 10608 10610 10610 10610 10610 10609 10609 10609 10610 10610 10609 10608 10607 10606 10603 10600 10596 10594 10592 10591 10590 10588 10587 10587 10587 10588 10589 10590 10592 10596 10600 10604 10608 10611 10614 10616 10619 10626 10633 10638 10645 10651 10656 10658 10657 10657 10657 10658 10660 10661 10663 10665 10667
10500 10505 10511 10517 10522 10528 10534 10541 10544 10547 10550 10555 10559 10563 10570 10576 10580 10583 10588 10591 10592 10592 10595 10597 10598 10600 10601 10600 10599 10599 10600 10602 10602 10604 10605 10605 10606 10606 10605 10605 10605 10605 10605 10605 10605 10603 10601 10598 10595 10592 10590 10588 10587 10585 10584 10583 10582 10582 10583 10584 10586 10589 10592 10596 10599 10603 10607 10610 10612 10616 10622 10628 10635 10642 10649 10654 10654 10653 10653 10654 10654 10656 10657 10658 10661 10663
10496 10502 10508 10513 10519 10526 10533 10538 10542 10545 10548 10552 10556 10562 10569 10573 10577 10580 10583 10586 10586 10586 10589 10592 10593 10595 10595 10594 10595 10595 10596 10598 10599 10600 10601 10602 10602 10602 10601 10601 10601 10601 10600 10601 10600 10599 10596 10593 10590 10588 10585 10583 10582 10580 10579 10578 10577 10577 10579 10581 10584 10586 10589 10592 10595 10599 10603 10606 10609 10613 10618 10624 10630 10638 10645 10649 10648 10647 10649 10649 10650 10651 10652 10654 10656 10658
10494 10500 10506 10511 10518 10524 10531 10536 10539 10542 10545 10549 10555 10560 10565 10568 10571 10574 10576 10579 10580 10581 10584 10587 10588 10589 10589 10589 10591 10592 10593 10594 10595 10596 10597 10598 10598 10598 10597 10597 10596 10597 10597 10597 10596 10594 10591 10588 10585 10583 10581 10578 10577 10576 10575 10574 10573 10574 10576 10579 10581 10583 10586 10588 10591 10595 10599 10603 10606 10610 10615 10619 10625 10631 10637 10641 10640 10640 10642 10644 10645 10646 10647 10649 10652 10653
10495 10501 10505 10511 10516 10522 10528 10532 10536 10539 10542 10547 10552 10555 10559 10562 10565 10568 10570 10573 10575 10576 10579 10582 10583 10583 10583 10585 10587 10587 10589 10590 10591 10591 10592 10593 10593 10593 10593 10592 10592 10593 10593 10593 10591 10589 10587 10584 10581 10578 10576 10574 10573 10572 10572 10571 10570 10571 10574 10576 10578 10580 10583 10586 10589 10593 10597 10600 10604 10608 10612 10615 10619 10623 10626 10629 10631 10633 10636 10638 10639 10640 10642 10644 10646 10648
10493 10498 10504 10510 10515 10521 10525 10529 10533 10536 10540 10545 10548 10551 10554 10558 10560 10563 10566 10568 10570 10572 10574 10576 10578 10578 10579 10580 10582 10583 10584 10585 10586 10586 10586 10587 10588 10588 10588 10588 10588 10589 10589 10589 10587 10584 10582 10579 10576 10573 10572 10570 10569 10569 10569 10568 10568 10569 10572 10573 10575 10578 10581 10584 10588 10591 10593 10597 10602 10606 10609 10612 10614 10616 10618 10621 10623 10625 10628 10631 10632 10633 10635 10638 10640 10642
10489 10495 10502 10508 10513 10518 10522 10526 10530 10534 10538 10542 10545 10548 10551 10553 10556 10559 10561 10563 10565 10567 10569 10571 10573 10574 10575 10576 10577 10579 10580 10580 10580 10581 10581 10582 10582 10583 10584 10584 10584 10584 10584 10583 10582 10579 10577 10575 10572 10570 10568 10567 10566 10566 10566 10565 10566 10567 10569 10571 10573 10576 10579 10583 10586 10588 10591 10595 10599 10601 10604 10606 10609 10612 10615 10617 10619 10620 10622 10624 10624 10625 10628 10632 10634 10637
10487 10493 10499 10504 10509 10514 10519 10523 10528 10532 10536 10539 10541 10544 10546 10549 10551 10554 10556 10559 10560 10561 10563 10566 10568 10569 10570 10571 10573 10574 10575 10575 10575 10575 10576 10576 10577 10578 10580 10580 10579 10579 10579 10578 10577 10575 10573 10570 10568 10566 10564 10564 10563 10563 10563 10563 10563 10565 10567 10569 10571 10574 10577 10581 10583 10586 10589 10593 10595 10597 10599 10600 10603 10608 10611 10614 10616 10617 10618 10620 10620 10621 10625 10628 10630 10632
10483 10489 10495 10501 10505 10510 10515 10519 10523 10528 10531 10534 10536 10538 10541 10544 10547 10549 10551 10554 10555 10556 10558 10560 10563 10564 10565 10566 10568 10568 10569 10570 10570 10570 10570 10571 10573 10574 10575 10576 10575 10574 10574 10573 10572 10570 10568 10566 10564 10562 10560 10560 10560 10560 10560 10560 10561 10563 10564 10566 10569 10571 10575 10579 10581 10583 10587 10590 10592 10594 10596 10598 10601 10605 10608 10611 10613 10614 10615 10616 10618 10620 10622 10623 10625 10626
10481 10486 10492 10497 10501 10504 10509 10513 10516 10520 10524 10527 10529 10532 10535 10538 10541 10544 10546 10549 10550 10551 10553 10555 10558 10559 10559 10561 10563 10563 10565 10565 10565 10564 10565 10567 10569 10570 10571 10571 10571 10570 10569 10568 10568 10566 10564 10562 10560 10558 10557 10556 10556 10557 10558 10558 10558 10560 10562 10565 10567 10569 10572 10576 10577 10580 10583 10586 10588 10590 10592 10595 10599 10602 10605 10608 10610 10611 10612 10613 10614 10616 10617 10617 10619 10621
10477 10483 10489 10493 10497 10500 10503 10507 10511 10514 10517 10521 10524 10527 10530 10532 10535 10538 10541 10543 10544 10546 10549 10551 10553 10553 10553 10556 10557 10558 10560 10560 10559 10560 10561 10563 10564 10565 10566 10566 10566 10565 10564 10564 10563 10562 10560 10558 10556 10554 10553 10552 10552 10553 10554 10555 10556 10558 10560 10562 10564 10566 10569 10572 10574 10576 10579 10582 10584 10586 10588 10591 10595 10599 10602 10604 10606 10608 10609 10610 10610 10611 10611 10612 10613 10614
10473 10478 10484 10488 10492 10495 10498 10502 10506 10510 10513 10517 10520 10523 10525 10527 10530 10533 10535 10537 10539 10542 10544 10546 10547 10548 10548 10550 10552 10553 10554 10554 10554 10556 10557 10559 10560 10560 10560 10561 10561 10560 10560 10560 10559 10558 10556 10554 10552 10551 10549 10549 10549 10549 10551 10552 10553 10554 10557 10559 10561 10563 10565 10568 10571 10573 10576 10578 10579 10582 10585 10589 10592 10595 10598 10600 10602 10604 10605 10606 10606 10606 10607 10608 10609 10609
10467 10473 10478 10483 10486 10490 10493 10497 10501 10505 10508 10511 10514 10518 10520 10522 10525 10528 10530 10533 10535 10537 10538 10541 10542 10543 10543 10545 10547 10549 10549 10549 10550 10551 10553 10556 10556 10555 10554 10555 10555 10555 10555 10555 10554 10553 10552 10551 10549 10547 10545 10545 10545 10545 10547 10548 10549 10551 10553 10555 10558 10560 10562 10565 10567 10569 10572 10574 10576 10579 10583 10586 10589 10592 10594 10595 10597 10599 10600 10601 10601 10602 10602 10603 10604 10604
10462 10467 10472 10477 10480 10484 10488 10492 10496 10499 10502 10505 10509 10512 10515 10517 10519 10522 10525 10528 10530 10532 10533 10536 10537 10538 10539 10539 10541 10543 10544 10544 10545 10547 10549 10551 10551 10550 10549 10549 10549 10550 10550 10550 10549 10549 10548 10547 10545 10543 10541 10541 10541 10542 10543 10544 10546 10547 10550 10552 10554 10556 10558 10561 10563 10566 10569 10571 10574 10577 10580 10583 10586 10588 10589 10591 10592 10594 10595 10595 10596 10597 10597 10598 10599 10599
10459 10463 10468 10472 10475 10479 10483 10486 10490 10494 10497 10500 10504 10508 10510 10512 10514 10516 10519 10522 10524 10526 10528 10530 10532 10533 10534 10534 10536 10537 10538 10539 10541 10543 10544 10546 10545 10544 10544 10544 10544 10544 10545 10544 10544 10544 10544 10543 10541 10539 10537 10537 10537 10538 10538 10540 10542 10544 10546 10548 10550 10552 10554 10557 10559 10562 10565 10568 10571 10574 10577 10579 10581 10583 10585 10586 10587 10588 10589 10590 10591 10591 10592 10593 10593 10594
10457 10461 10465 10468 10472 10476 10480 10483 10486 10489 10492 10496 10500 10503 10505 10508 10510 10512 10513 10516 10518 10520 10522 10523 10525 10527 10528 10529 10531 10531 10533 10534 10536 10537 10539 10539 10539 10539 10539 10538 10538 10539 10539 10539 10539 10539 10539 10538 10536 10535 10534 10533 10533 10534 10534 10536 10538 10540 10542 10544 10546 10548 10550 10552 10555 10557 10560 10564 10568 10571 10573 10575 10576 10578 10580 10580 10581 10582 10584 10585 10586 10587 10588 10588 10587 10588
10453 10457 10461 10465 10469 10473 10476 10479 10482 10486 10489 10493 10495 10498 10500 10502 10504 10506 10507 10509 10511 10513 10515 10516 10519 10521 10523 10524 10525 10526 10527 10529 10529 10531 10532 10533 10533 10533 10533 10533 10533 10533 10534 10534 10534 10534 10534 10533 10532 10531 10530 10530 10529 10530 10530 10532 10534 10536 10538 10540 10542 10544 10546 10548 10550 10552 10555 10559 10563 10567 10569 10570 10571 10573 10574 10575 10575 10577 10579 10580 10581 10582 10583 10582 10581 10583
10448 10452 10456 10460 10464 10467 10470 10473 10477 10482 10485 10487 10488 10491 10493 10495 10498 10500 10501 10503 10505 10507 10509 10511 10513 10515 10516 10518 10520 10520 10522 10523 10523 10524 10526 10527 10527 10528 10528 10528 10528 10528 10528 10528 10529 10529 10529 10527 10527 10527 10526 10526 10525 10525 10526 10528 10530 10532 10534 10536 10538 10540 10542 10544 10545 10548 10550 10553 10557 10561 10564 10566 10567 10568 10569 10570 10572 10574 10575 10576 10577 10578 10578 10577 10576 10577
10445 10449 10452 10455 10458 10461 10464 10468 10472 10475 10477 10478 10480 10484 10486 10488 10491 10493 10495 10497 10499 10501 10503 10505 10507 10509 10511 10512 10514 10515 10516 10517 10518 10518 10519 10521 10522 10522 10523 10523 10523 10522 10522 10522 10523 10524 10524 10522 10522 10522 10522 10522 10521 10521 10522 10524 10525 10527 10529 10531 10533 10536 10538 10540 10541 10543 10545 10547 10550 10554 10558 10561 10562 10564 10564 10565 10568 10571 10572 10572 10572 10572 10572 10572 10569 10569
10441 10444 10447 10450 10453 10455 10459 10462 10464 10467 10470 10473 10476 10478 10480 10481 10484 10487 10490 10492 10494 10496 10498 10500 10501 10502 10505 10506 10508 10509 10511 10512 10512 10512 10512 10515 10516 10516 10518 10518 10518 10518 10516 10516 10517 10518 10519 10518 10517 10517 10517 10517 10516 10517 10517 10519 10520 10522 10524 10526 10528 10530 10533 10535 10537 10539 10541 10543 10545 10548 10551 10554 10557 10558 10559 10561 10564 10566 10566 10566 10567 10566 10566 10566 10563 10563
10435 10438 10441 10444 10447 10450 10453 10455 10457 10461 10466 10468 10468 10470 10472 10475 10478 10481 10484 10487 10489 10490 10491 10492 10494 10496 10498 10500 10501 10503 10505 10506 10506 10505 10505 10508 10509 10510 10511 10512 10512 10512 10512 10510 10510 10512 10514 10514 10512 10512 10512 10511 10511 10512 10512 10514 10515 10516 10518 10520 10522 10525 10528 10530 10532 10534 10536 10538 10540 10542 10544 10547 10550 10552 10554 10556 10558 10560 10560 10560 10560 10559 10559 10559 10556 10557
10430 10432 10435 10438 10441 10444 10446 10448 10451 10454 10457 10459 10460 10463 10466 10470 10473 10475 10477 10480 10482 10482 10482 10484 10486 10489 10491 10493 10495 10496 10498 10499 10499 10498 10499 10501 10502 10503 10504 10505 10505 10506 10506 10506 10505 10506 10507 10508 10507 10507 10507 10507 10507 10506 10507 10508 10510 10511 10513 10514 10517 10520 10522 10525 10527 10529 10531 10533 10535 10537 10538 10540 10543 10545 10548 10550 10552 10553 10553 10553 10552 10552 10553 10552 10550 10551
10424 10427 10430 10433 10436 10438 10440 10443 10445 10447 10450 10452 10455 10457 10460 10463 10466 10468 10470 10472 10473 10473 10474 10477 10479 10481 10484 10486 10488 10489 10490 10491 10492 10491 10493 10495 10495 10495 10497 10498 10498 10499 10500 10500 10500 10500 10500 10501 10501 10500 10501 10502 10502 10502 10503 10504 10504 10506 10508 10510 10512 10514 10516 10519 10521 10523 10525 10527 10528 10530 10532 10534 10536 10538 10540 10543 10545 10545 10545 10546 10546 10546 10546 10546 10544 10544
10418 10421 10425 10427 10430 10432 10435 10437 10439 10441 10443 10445 10447 10450 10452 10454 10458 10461 10463 10463 10464 10465 10468 10470 10471 10474 10476 10478 10481 10482 10483 10484 10484 10484 10485 10487 10488 10488 10489 10490 10491 10492 10493 10493 10494 10493 10493 10493 10494 10494 10495 10497 10497 10497 10498 10499 10499 10501 10503 10505 10506 10508 10510 10512 10514 10516 10519 10521 10522 10524 10526 10527 10529 10531 10533 10535 10537 10538 10538 10538 10539 10539 10538 10539 10538 10538
10413 10416 10419 10422 10424 10426 10428 10431 10433 10434 10436 10437 10439 10441 10443 10446 10450 10452 10453 10454 10457 10459 10461 10462 10464 10467 10469 10471 10473 10474 10475 10475 10476 10476 10477 10479 10481 10481 10482 10482 10484 10485 10485 10486 10487 10486 10486 10486 10487 10488 10490 10491 10492 10492 10493 10494 10494 10496 10497 10498 10499 10501 10502 10504 10506 10509 10511 10513 10515 10516 10518 10520 10522 10524 10525 10527 10529 10530 10531 10532 10531 10531 10531 10531 10532 10532
10408 10410 10413 10415 10418 10420 10422 10424 10425 10426 10427 10429 10432 10434 10437 10440 10442 10442 10444 10447 10450 10451 10453 10454 10456 10459 10461 10463 10465 10465 10466 10467 10467 10468 10469 10471 10473 10474 10474 10475 10476 10477 10478 10478 10479 10480 10480 10480 10482 10483 10483 10484 10486 10487 10487 10488 10489 10490 10491 10491 10492 10494 10495 10497 10499 10500 10502 10504 10506 10508 10509 10511 10513 10515 10517 10518 10520 10521 10523 10524 10525 10525 10524 10524 10524 10524
10401 10404 10406 10408 10410 10412 10414 10416 10417 10417 10419 10423 10427 10429 10431 10434 10434 10435 10437 10440 10442 10443 10445 10445 10447 10449 10452 10454 10456 10457 10458 10459 10460 10460 10461 10463 10465 10466 10466 10468 10469 10470 10470 10470 10472 10473 10474 10475 10476 10477 10478 10478 10479 10480 10481 10482 10483 10483 10484 10485 10485 10487 10488 10489 10490 10492 10494 10496 10498 10499 10500 10502 10504 10506 10508 10509 10511 10513 10514 10516 10517 10518 10518 10517 10517 10516
10394 10396 10398 10400 10402 10404 10406 10407 10409 10411 10414 10417 10421 10422 10424 10426 10426 10427 10429 10432 10433 10435 10436 10437 10439 10441 10443 10445 10447 10449 10450 10451 10452 10453 10454 10455 10456 10458 10459 10461 10462 10462 10462 10463 10465 10466 10467 10469 10470 10471 10472 10472 10473 10473 10474 10474 10475 10475 10476 10477 10478 10480 10481 10481 10482 10484 10485 10487 10489 10490 10492 10493 10495 10497 10499 10500 10502 10504 10505 10507 10508 10509 10510 10511 10510 10509
10385 10388 10390 10393 10395 10397 10398 10400 10402 10404 10407 10410 10412 10414 10416 10417 10418 10419 10421 10424 10426 10427 10428 10430 10432 10434 10435 10438 10440 10441 10442 10444 10445 10446 10447 10448 10449 10450 10452 10453 10454 10456 10456 10457 10458 10460 10461 10463 10464 10465 10466 10466 10466 10466 10466 10467 10467 10467 10468 10469 10471 10472 10473 10474 10475 10476 10477 10478 10480 10482 10483 10484 10486 10488 10490 10491 10492 10494 10496 10497 10499 10500 10501 10503 10503 10502
10377 10380 10383 10384 10387 10389 10391 10392 10394 10397 10400 10403 10404 10406 10408 10409 10411 10412 10414 10417 10418 10420 10421 10423 10425 10427 10429 10431 10433 10434 10435 10436 10437 10439 10439 10440 10442 10443 10445 10445 10447 10450 10451 10450 10451 10453 10456 10457 10458 10458 10459 10459 10459 10459 10459 10460 10460 10460 10460 10461 10462 10463 10464 10466 10467 10468 10469 10470 10472 10473 10474 10475 10477 10479 10480 10482 10483 10484 10486 10488 10489 10490 10491 10493 10494 10494
10368 10372 10374 10376 10379 10381 10383 10384 10387 10391 10393 10395 10396 10398 10400 10402 10403 10405 10407 10409 10411 10412 10414 10416 10417 10419 10422 10424 10426 10427 10427 10428 10430 10431 10432 10434 10435 10436 10438 10439 10440 10443 10445 10445 10445 10447 10449 10449 10450 10451 10452 10452 10452 10452 10452 10453 10454 10454 10454 10453 10453 10455 10456 10458 10459 10460 10461 10462 10463 10465 10465 10466 10467 10469 10471 10472 10474 10475 10476 10478 10480 10481 10481 10483 10484 10484
10360 10363 10366 10368 10371 10373 10375 10377 10380 10383 10385 10386 10388 10390 10393 10395 10396 10397 10399 10401 10403 10405 10406 10408 10410 10412 10414 10416 10417 10419 10420 10421 10422 10424 10425 10427 10429 10430 10431 10432 10433 10435 10437 10438 10440 10441 10441 10441 10443 10445 10446 10446 10445 10445 10445 10446 10446 10447 10447 10446 10446 10446 10448 10449 10450 10452 10453 10453 10454 10455 10456 10457 10459 10460 10461 10462 10464 10466 10467 10467 10469 10470 10472 10473 10474 10475
10352 10355 10357 10360 10363 10366 10368 10370 10373 10376 10377 10379 10381 10384 10386 10388 10389 10391 10392 10394 10396 10398 10399 10401 10402 10403 10404 10406 10409 10411 10413 10414 10415 10417 10419 10420 10422 10423 10424 10425 10425 10427 10429 10431 10434 10435 10435 10435 10436 10437 10437 10437 10437 10437 10437 10438 10438 10439 10439 10439 10439 10439 10439 10440 10441 10442 10443 10444 10445 10445 10446 10447 10449 10450 10451 10452 10454 10455 10456 10457 10458 10459 10461 10462 10463 10464
10345 10347 10349 10353 10356 10358 10360 10362 10365 10368 10369 10371 10374 10377 10379 10380 10382 10383 10385 10387 10389 10390 10391 10392 10393 10394 10396 10399 10402 10404 10406 10407 10408 10410 10411 10413 10414 10416 10417 10418 10419 10421 10423 10425 10427 10428 10428 10428 10428 10428 10428 10428 10428 10428 10429 10429 10429 10430 10430 10431 10431 10431 10431 10431 10431 10432 10432 10433 10434 10435 10436 10436 10438 10439 10441 10442 10443 10444 10445 10446 10447 10448 10449 10450 10451 10452